Location: Iesi
(43.5167°N, 13.2333°E)
Time: 16:17:42
(UTC+00:00)

Cosmos 1833 Rocket - Pass Details

Date: 08 August 2020
Orbit: 831 x 841 km, 71.0° (Epoch: 22 September)

Event Time Altitude Azimuth Distance (km) Brightness Sun altitude
Rises 20:52:36 0° 234° (SW) 3,366 5.8 -22.6°
Reaches altitude 10° 20:55:18 10° 245° (WSW) 2,438 5.2 -22.9°
Maximum altitude 21:00:12 31° 306° (NW) 1,442 4.5 -23.4°
Drops below altitude 10° 21:05:09 10° 7° (N) 2,456 5.7 -23.9°
Sets 21:07:54 0° 18° (NNE) 3,396 6.4 -24.2°
